Terminal Aerodrome Forecast
Issued by NWS Paducah, KY

Home | Current Version | Previous Version | Text Only | Print | Product List | Glossary On
Versions: 1 2 3 4 5 6 7 8 9 10 11 12 13 14 15 16 17 18 19 20 21 22 23 24 25 26
000
FTUS43 KPAH 161131
TAFEVV
TAF
KEVV 161131Z 1612/1712 07004KT 4SM BR OVC006
     FM162000 17009KT 2SM -SHRA BR OVC004
     FM170000 17012KT 3SM -SHRA BR VCTS OVC010CB
      TEMPO 1702/1706 2SM -TSRA BR OVC008CB
     FM171000 23009KT 4SM BR OVC012=

USA.gov is the U.S. government's official web portal to all federal, state and local government web resources and services.